EW5697 Weather Reports


Display with metric or nautical units.
time (UTC)temp
F
wind
direction
speed
MPH
gust
MPH
rain 1hr
in
rain 24hr
in
rain mn
in
humidity
%
barometer
mb
20260510213010 85 207 0.0 0.0 0.00 0.00 0.00 27 1015.4
20260510211508 85 222 0.0 0.0 0.00 0.00 0.00 26 1015.5
20260510210003 84 195 0.0 0.0 0.00 0.00 0.00 26 1015.6
20260510204607 83 156 0.0 0.0 0.00 0.00 0.00 27 1015.6
20260510203058 82 152 0.0 0.0 0.00 0.00 0.00 31 1015.7
20260510201553 81 110 0.0 0.0 0.00 0.00 0.00 30 1015.8
20260510200051 79 304 0.0 0.0 0.00 0.00 0.00 38 1015.9
20260510194550 78 111 0.0 0.0 0.00 0.00 0.00 41 1016.0
20260510193043 76 279 0.0 0.0 0.00 0.00 0.00 40 1016.3
20260510191539 75 293 0.0 0.0 0.00 0.00 0.00 42 1016.4
20260510190041 74 87 0.0 0.0 0.00 0.00 0.00 44 1016.6
20260510184531 73 299 0.0 0.0 0.00 0.00 0.00 46 1016.7
20260510183031 71 302 0.0 0.0 0.00 0.00 0.00 49 1016.7
20260510181525 70 301 0.0 0.0 0.00 0.00 0.00 47 1016.7
20260510180024 70 309 0.0 0.0 0.00 0.00 0.00 49 1016.8
20260510174521 69 302 0.0 0.0 0.00 0.00 0.00 49 1016.8
20260510173017 68 301 0.0 0.0 0.00 0.00 0.00 52 1016.8
20260510171512 67 301 0.0 0.0 0.00 0.00 0.00 54 1016.9
20260510170009 65 295 0.0 0.0 0.00 0.00 0.00 55 1017.0
20260510164507 64 231 0.0 0.0 0.00 0.00 0.00 57 1017.0
20260510163003 63 231 0.0 0.0 0.00 0.00 0.00 60 1017.2
20260510161559 62 231 0.0 0.0 0.00 0.00 0.00 63 1017.2
20260510160054 60 202 0.0 0.0 0.00 0.00 0.00 65 1017.1
20260510154550 59 202 0.0 0.0 0.00 0.00 0.00 68 1017.2
20260510153047 57 202 0.0 0.0 0.00 0.00 0.00 69 1017.1
20260510151549 56 202 0.0 0.0 0.00 0.00 0.00 73 1017.1
20260510150145 55 202 0.0 0.0 0.00 0.00 0.00 74 1017.0
20260510144557 53 202 0.0 0.0 0.00 0.00 0.00 76 1017.1
20260510143042 52 202 0.0 0.0 0.00 0.00 0.00 78 1017.1
20260510141538 50 202 0.0 0.0 0.00 0.00 0.00 77 1017.1
20260510140036 49 202 0.0 0.0 0.00 0.00 0.00 76 1017.2
20260510134541 49 202 0.0 0.0 0.00 0.00 0.00 74 1017.3
20260510133033 49 202 0.0 0.0 0.00 0.00 0.00 72 1017.3
20260510131529 50 202 0.0 0.0 0.00 0.00 0.00 71 1017.3
20260510130028 50 202 0.0 0.0 0.00 0.00 0.00 70 1017.1
20260510124530 51 202 0.0 0.0 0.00 0.00 0.00 69 1017.0
20260510123024 51 202 0.0 0.0 0.00 0.00 0.00 68 1016.9
20260510121526 52 202 0.0 0.0 0.00 0.00 0.00 67 1016.6
20260510120033 52 202 0.0 0.0 0.00 0.00 0.00 67 1016.6
20260510114517 53 202 0.0 0.0 0.00 0.00 0.00 65 1016.7
20260510113015 53 202 0.0 0.0 0.00 0.00 0.00 62 1016.7
20260510111512 54 202 0.0 0.0 0.00 0.00 0.00 62 1016.7
20260510110016 54 202 0.0 0.0 0.00 0.00 0.00 62 1016.7
20260510104513 54 202 0.0 0.0 0.00 0.00 0.00 61 1016.9
20260510103008 55 202 0.0 0.0 0.00 0.00 0.00 61 1017.1
20260510101506 55 202 0.0 0.0 0.00 0.00 0.00 60 1017.1
20260510100006 55 202 0.0 0.0 0.00 0.00 0.00 60 1017.3
20260510094513 55 202 0.0 0.0 0.00 0.00 0.00 59 1017.4
20260510093002 55 202 0.0 0.0 0.00 0.00 0.00 59 1017.5
20260510091559 55 202 0.0 0.0 0.00 0.00 0.00 57 1017.7
20260510090056 56 202 0.0 0.0 0.00 0.00 0.00 56 1017.8
20260510084555 56 202 0.0 0.0 0.00 0.00 0.00 55 1017.8
20260510083054 56 202 0.0 0.0 0.00 0.00 0.00 55 1017.7
20260510081613 56 202 0.0 0.0 0.00 0.00 0.00 54 1017.8
20260510080049 57 202 0.0 0.0 0.00 0.00 0.00 53 1017.7
20260510074549 57 202 0.0 0.0 0.00 0.00 0.00 51 1017.9
20260510073046 58 202 0.0 0.0 0.00 0.00 0.00 50 1018.0
20260510071545 58 202 0.0 0.0 0.00 0.00 0.00 47 1018.0
20260510070043 58 202 0.0 0.0 0.00 0.00 0.00 47 1018.0
20260510064543 58 202 0.0 0.0 0.00 0.00 0.00 46 1017.9
20260510063042 59 202 0.0 0.0 0.00 0.00 0.00 45 1017.9
20260510061541 59 202 0.0 0.0 0.00 0.00 0.00 43 1018.1
20260510060049 59 202 0.0 0.0 0.00 0.00 0.00 44 1018.1
20260510054540 59 202 0.0 0.0 0.00 0.00 0.00 43 1018.1
20260510053041 59 202 0.0 0.0 0.00 0.00 0.00 45 1018.1
20260510051557 59 202 0.0 0.0 0.00 0.00 0.00 50 1018.1
20260510050038 60 202 0.0 0.0 0.00 0.00 0.00 48 1018.0
20260510044539 61 202 0.0 0.0 0.00 0.00 0.00 46 1017.9
20260510043054 63 202 0.0 0.0 0.00 0.00 0.00 41 1017.6
20260510041537 65 202 0.0 0.0 0.00 0.00 0.00 38 1017.3
20260510040037 67 202 0.0 0.0 0.00 0.00 0.00 35 1017.2
20260510034542 68 202 0.0 0.0 0.00 0.00 0.00 31 1017.0
20260510033039 70 202 0.0 0.0 0.00 0.00 0.00 30 1016.8
20260510031604 71 202 0.0 0.0 0.00 0.00 0.00 30 1016.6
20260510030037 72 188 0.0 0.0 0.00 0.00 0.00 29 1016.4
20260510024537 73 198 0.0 0.0 0.00 0.00 0.00 27 1016.3
20260510023044 75 189 0.0 0.0 0.00 0.00 0.00 26 1016.2
20260510021538 77 154 0.0 0.0 0.00 0.00 0.00 25 1016.2
20260510020032 79 202 0.0 0.0 0.00 0.00 0.00 24 1016.3
20260510014532 80 181 0.0 0.0 0.00 0.00 0.00 24 1016.3
20260510013031 81 212 0.0 0.0 0.00 0.00 0.00 23 1016.3
20260510011530 83 119 0.0 0.0 0.00 0.00 0.00 22 1016.3
20260510010032 84 139 0.0 0.0 0.00 0.00 0.00 22 1016.4
20260510004527 84 229 0.0 0.0 0.00 0.00 0.00 21 1016.5
20260510003026 84 161 0.0 0.0 0.00 0.00 0.00 21 1016.5
20260510001525 85 224 0.0 0.0 0.00 0.00 0.00 20 1016.5
20260510000021 85 318 0.0 0.0 0.00 0.00 0.00 26 1016.7
20260509234521 85 314 0.0 0.0 0.00 0.00 0.00 27 1016.7
20260509233018 85 289 0.0 0.0 0.00 0.00 0.00 26 1016.8
20260509231516 85 7 0.0 0.0 0.00 0.00 0.00 25 1016.9
20260509230012 84 334 0.0 0.0 0.00 0.00 0.00 31 1017.0
20260509224510 84 265 0.0 0.0 0.00 0.00 0.00 28 1017.2
20260509223007 83 314 0.0 0.0 0.00 0.00 0.00 29 1017.5
20260509221506 82 41 0.0 0.0 0.00 0.00 0.00 33 1017.8
20260509220002 82 313 0.0 0.0 0.00 0.00 0.00 31 1018.1
20260509214600 82 52 0.0 0.0 0.00 0.00 0.00 31 1018.3